Meteo Giornale » Osservazioni meteo Italia » Venezia-Tessera

ore: 13:20 - Osservazioni Meteo Venezia-Tessera
Lat. 45° 30' N Lon. 12° 20' E Alt. 2 metri s.l.m.

sereno Europe/Rome

30 °C

Sereno

Temp. 24 Ore

21 °C

31 °C

Est

11.1 Km/h

Dew point 20 °C

Umidità 55 %

Visibilità  10 Km

Il sole sorge alle ore 06:17

Il sole tramonta alle ore 20:10

Data e Ora Cielo e Fenomeni T °C DP °C Um. % Pres. hPa Vis. km Vento km/h
Oggi h: 13:20 sereno Sereno 30 20 55 1017 10 E 11.1
Oggi h: 12:50 sereno Sereno 30 19 51 1017 10 E 9.3
Oggi h: 12:20 sereno Sereno 30 18 48 1018 10 NE 11.1
Oggi h: 11:50 poco_nuvoloso Poco Nuvoloso 29 19 54 1018 10 NE 11.1
Oggi h: 11:20 poco_nuvoloso Poco Nuvoloso 28 18 54 1018 10 NE 11.1
Oggi h: 10:50 sereno Sereno 28 18 54 1018 10 NE 13
Oggi h: 10:20 sereno Sereno 28 18 54 1017 10 NE 13
Oggi h: 09:50 sereno Sereno 26 18 61 1017 10 NE 13
Oggi h: 09:20 sereno Sereno 24 18 69 1017 10 N/NE 11.1
Oggi h: 08:50 sereno Sereno 24 18 69 1017 10 N 11.1
Oggi h: 08:20 sereno Sereno 23 18 73 1017 10 N 9.3
Oggi h: 07:50 sereno Sereno 22 18 78 1017 10 N 7.4
Oggi h: 07:20 sereno Sereno 22 18 78 1017 10 N/NE 11.1
Oggi h: 06:50 sereno Sereno 21 18 82 1016 10 NE 9.3
Oggi h: 06:20 sereno Sereno 21 18 82 1016 10 NE 9.3
Oggi h: 05:50 sereno Sereno 21 18 82 1016 10 N/NE 11.1
Oggi h: 05:20 sereno Sereno 21 18 82 1016 10 N/NE 11.1
Oggi h: 04:50 sereno Sereno 21 19 88 1016 10 N/NE 9.3
Oggi h: 04:20 sereno Sereno 22 19 83 1016 10 E/NE 11.1
Oggi h: 03:50 sereno Sereno 22 19 83 1016 10 NE 9.3
Oggi h: 03:20 sereno Sereno 22 19 83 1016 10 NE 11.1
Oggi h: 02:50 sereno Sereno 22 19 83 1016 10 NE 11.1
Oggi h: 02:20 sereno Sereno 22 20 88 1016 10 NE 11.1
Oggi h: 01:50 sereno Sereno 23 20 83 1016 10 N/NE 9.3
Oggi h: 01:20 sereno Sereno 23 20 83 1016 10 N 5.5
Oggi h: 00:50 sereno Sereno 23 21 88 1016 10 N/NE 7.4
Oggi h: 00:20 sereno Sereno 23 21 88 1016 10 N 9.3
Ieri h: 23:50 sereno Sereno 25 22 83 1016 10 N 1.8
Ieri h: 23:20 sereno Sereno 26 22 78 1016 10 N 3.7
Ieri h: 22:50 sereno Sereno 25 22 83 1016 10 N 3.7
Ieri h: 22:20 sereno Sereno 26 21 73 1016 10 N 3.7
Ieri h: 21:50 sereno Sereno 26 22 78 1016 10 N 3.7
Ieri h: 21:20 sereno Sereno 26 21 73 1016 10 N 3.7
Ieri h: 20:50 sereno Sereno 26 20 69 1016 10 N 3.7
Ieri h: 20:20 sereno Sereno 27 20 65 1016 10 N 5.5
Ieri h: 19:50 sereno Sereno 27 19 61 1016 10 N 5.5
Ieri h: 19:20 sereno Sereno 28 19 58 1015 10 N 5.5
Ieri h: 18:50 sereno Sereno 28 18 54 1015 10 SE 7.4
Ieri h: 18:20 sereno Sereno 29 19 54 1016 10 S/SE 7.4
Ieri h: 17:50 sereno Sereno 29 20 58 1016 10 S/SE 9.3
Ieri h: 17:20 sereno Sereno 29 21 62 1016 10 S/SE 9.3
Ieri h: 16:50 sereno Sereno 29 20 58 1016 10 S/SE 9.3
Ieri h: 16:20 sereno Sereno 29 21 62 1016 10 SE 11.1
Ieri h: 15:50 sereno Sereno 30 22 62 1016 10 S/SE 9.3
Ieri h: 15:20 sereno Sereno 30 22 62 1016 10 SE 9.3
Ieri h: 14:50 sereno Sereno 30 20 55 1016 10 E/SE 11.1
Ieri h: 14:20 sereno Sereno 30 19 51 1017 10 E 11.1
Ieri h: 13:50 sereno Sereno 31 19 48 1017 10 E 11.1